Weather History for Greenwood, MS

Change the Weather History Date:

Friday, October 5, 2012

  Actual Average Record
Temperature  
Mean Temperature 72 °F 68 °F  
Max Temperature 84 °F 81 °F 97 °F (1954)
Min Temperature 59 °F 55 °F 33 °F (2010)
Degree Days  
Heating Degree Days 0 2  
Month to date heating degree days 7 9  
Since 1 July heating degree days 14 21  
Cooling Degree Days 7 5  
Month to date cooling degree days 14 26  
Year to date cooling degree days 2186 2073  
Growing Degree Days 20 (Base 50)    
Moisture  
Dew Point 62 °F    
Average Humidity 74    
Maximum Humidity 100    
Minimum Humidity 47    
Precipitation  
Precipitation 0.00 in 0.13 in 2.61 in (2001)
Month to date precipitation 0.24 0.63  
Year to date precipitation 34.47 38.36  
Sea Level Pressure  
Sea Level Pressure 30.08 in    
Wind  
Wind Speed 4 mph (SSW)    
Max Wind Speed 14 mph    
Max Gust Speed 20 mph    
Visibility 9 miles    
Events      
T = Trace of Precipitation, MM = Missing Value Source: NWS Daily Summary

Daily Weather History Graph

Daily Weather History Graph

Search for Another Location

Airport:

Trip Planner

Search our weather history database for the weather conditions in past years. The results will help you decide how hot, cold, wet, or windy it might be!

Date:

Astronomy

Oct. 05, 2012 Rise Set
Actual Time 6:57 AM CDT 6:38 PM CDT
Civil Twilight 6:33 AM CDT 7:03 PM CDT
Nautical Twilight 6:04 AM CDT 7:32 PM CDT
Astronomical Twilight 5:35 AM CDT 8:01 PM CDT
Moon 10:15 PM CDT (10/5) 11:52 AM CDT (10/5)
Length of Visible Light 12h 30m
Length of Day
11h 40m
Waning Gibbous, 74% of the Moon is Illuminated
Oct 5
Waning Gibbous
Oct 8
Last Quarter
Oct 15
New
Oct 21
First Quarter
Oct 29
Full

Hourly Weather History & Observations

Time (CDT) Temp. Heat Index Dew Point Humidity Pressure Visibility Wind Dir Wind Speed Gust Speed Precip Events Conditions
12:53 AM 62.1 °F - 62.1 °F 100% 30.17 in 7.0 mi Calm Calm - N/A   Clear
1:53 AM 64.0 °F - 61.0 °F 90% 30.17 in 8.0 mi Calm Calm - N/A   Clear
2:53 AM 62.6 °F - 60.8 °F 94% 30.16 in 10.0 mi Calm Calm - N/A   Clear
3:53 AM 61.0 °F - 59.0 °F 93% 30.15 in 7.0 mi Calm Calm - N/A   Clear
4:53 AM 60.1 °F - 59.0 °F 96% 30.15 in 6.0 mi Calm Calm - N/A   Clear
5:53 AM 60.1 °F - 57.9 °F 93% 30.15 in 7.0 mi Calm Calm - N/A   Clear
6:53 AM 59.0 °F - 57.9 °F 96% 30.15 in 7.0 mi Calm Calm - N/A   Clear
7:53 AM 64.0 °F - 61.0 °F 90% 30.15 in 8.0 mi Calm Calm - N/A   Clear
8:53 AM 71.1 °F - 62.1 °F 73% 30.15 in 10.0 mi South 6.9 mph - N/A   Mostly Cloudy
9:53 AM 75.0 °F - 63.0 °F 66% 30.15 in 10.0 mi South 8.1 mph - N/A   Mostly Cloudy
10:53 AM 79.0 °F - 63.0 °F 58% 30.13 in 10.0 mi SSE 11.5 mph - N/A   Clear
11:53 AM 82.4 °F 83.4 °F 62.6 °F 51% 30.11 in 10.0 mi South 8.1 mph - N/A   Clear
12:53 PM 82.9 °F 83.7 °F 62.1 °F 49% 30.09 in 10.0 mi WSW 8.1 mph 16.1 mph N/A   Clear
1:53 PM 81.0 °F 81.9 °F 62.1 °F 52% 30.06 in 10.0 mi SW 5.8 mph - N/A   Mostly Cloudy
2:53 PM 81.0 °F 81.7 °F 61.0 °F 50% 30.04 in 10.0 mi South 6.9 mph - N/A   Partly Cloudy
3:53 PM 82.9 °F 83.3 °F 61.0 °F 47% 30.01 in 10.0 mi SW 9.2 mph - N/A   Partly Cloudy
4:53 PM 82.0 °F 82.7 °F 61.0 °F 49% 30.00 in 10.0 mi SW 6.9 mph - N/A   Partly Cloudy
5:53 PM 80.1 °F 81.2 °F 62.1 °F 54% 29.99 in 10.0 mi SW 4.6 mph - N/A   Clear
6:53 PM 72.0 °F - 64.9 °F 78% 29.98 in 10.0 mi Calm Calm - N/A   Clear
7:53 PM 71.1 °F - 64.9 °F 81% 29.99 in 10.0 mi South 3.5 mph - N/A   Clear
8:53 PM 68.0 °F - 64.9 °F 90% 30.00 in 10.0 mi Calm Calm - N/A   Clear
9:53 PM 64.9 °F - 64.0 °F 97% 30.01 in 8.0 mi Calm Calm - N/A   Clear
10:53 PM 68.0 °F - 66.0 °F 93% 30.01 in 9.0 mi Calm Calm - N/A   Overcast
11:53 PM 70.0 °F - 64.0 °F 81% 30.03 in 10.0 mi NNW 11.5 mph - N/A   Overcast